Wetbulb
47.48 43.42 41.80 44.16 45.34 44.77 43.57 41.80 41.35 45.33 49.06 48.72 48.34 49.80 51.48 54.59 54.36 55.52 57.51 58.51 59.56 60.58 62.39 63.90 65.24 66.53 67.23 70.29 72.26 72.92 72.34 75.78 73.97 71.11 69.84 70.34 70.75 72.73 72.70 73.29 75.10 74.36 74.28 73.88
44.33 41.41 44.69 45.58 44.87 43.22 42.70 41.27 41.24 44.05 46.32 47.91 48.61 48.20 51.26 53.77 54.37 54.85 56.06 57.84 59.05 60.30 61.76 63.09 64.95 67.45 67.94 69.63 70.79 72.00 73.47 74.41 75.60 71.84 72.70 72.65 73.44 72.64 73.12 73.43 74.85 74.63 73.95 73.86
41.55 43.14 45.74 43.83 43.09 41.60 41.66 40.46 40.80 40.96 44.64 46.94 46.91 45.81 48.58 52.13 54.40 55.58 56.16 57.68 58.75 59.62 60.18 61.81 62.81 65.51 66.30 67.49 69.81 70.67 73.02 74.32 75.01 75.13 74.08 74.32 74.41 74.54 72.65 73.17 73.19 73.79 73.71 73.75
43.04 45.59 43.78 41.83 41.19 42.41 38.42 43.00 42.04 41.25 40.65 37.81 46.23 38.78 46.74 49.94 51.24 53.33 54.93 56.27 57.66 59.12 60.25 61.13 61.58 64.26 65.79 65.66 67.58 70.34 71.99 73.46 74.33 76.34 73.16 76.09 72.11 71.00 71.59 72.76 73.26 73.48 73.73 73.43
40.96 42.40 42.18 41.83 41.37 43.18 40.12 43.22 41.96 41.38 39.97 40.18 41.06 39.91 44.81 49.59 48.61 51.65 54.01 55.59 57.22 58.68 59.61 59.94 60.59 61.71 62.68 64.95 66.61 69.01 71.22 72.78 74.45 75.47 74.67 73.07 73.67 72.04 72.37 72.51 74.65 75.42 73.84 73.76
42.98 47.04 45.55 44.10 45.29 44.17 44.39 41.53 41.45 41.25 39.98 34.22 39.40 39.65 41.63 45.74 49.42 51.49 54.07 55.65 56.67 57.39 58.65 59.52 60.31 61.90 62.62 62.08 63.49 67.50 69.95 71.69 73.91 74.26 73.26 75.70 75.09 75.42 72.05 73.34 72.01 71.85 71.74 72.37
41.26 41.92 45.77 45.44 42.39 44.98 41.93 39.18 31.63 29.55 31.13 31.38 40.72 39.47 42.14 48.34 50.41 51.90 52.40 54.20 55.97 57.02 57.06 57.73 58.62 59.32 60.92 61.98 63.34 64.36 67.94 69.64 72.81 72.65 72.77 72.95 75.55 76.58 76.62 74.00 72.29 72.60 71.15 71.44
34.40 33.07 41.47 45.04 42.28 40.22 40.51 38.49 31.25 24.19 26.99 32.31 40.64 34.77 42.09 49.05 51.40 52.99 53.46 55.09 55.86 55.52 57.54 58.54 59.64 61.35 62.75 63.41 63.55 63.55 65.45 69.27 71.97 72.32 72.59 73.58 74.61 73.15 73.57 74.76 73.08 72.11 71.42 71.94
34.98 34.82 42.80 43.87 45.52 43.81 39.83 36.91 41.62 34.25 34.86 29.30 33.50 40.86 46.70 49.83 49.85 51.69 52.45 53.55 54.35 55.70 58.86 60.49 62.94 64.72 65.43 64.13 64.06 66.59 68.77 70.50 71.91 72.57 73.19 73.81 74.47 75.55 74.07 75.56 75.31 71.83 73.80 71.44
39.87 33.14 40.83 42.75 45.48 44.01 41.94 43.38 33.22 36.67 27.28 24.79 33.39 36.78 39.10 45.63 47.72 50.49 51.92 52.76 54.04 55.99 57.42 59.57 63.43 66.00 66.86 65.08 65.36 68.11 69.76 71.09 72.04 72.82 73.25 73.21 73.49 73.12 72.87 72.84 73.16 72.74 72.34 70.91
41.47 37.86 37.51 41.49 39.83 38.97 39.54 38.46 39.49 38.02 35.04 28.82 26.66 34.80 46.30 47.41 48.83 50.57 52.51 53.66 54.06 55.05 56.76 60.21 65.03 65.80 67.13 66.90 67.76 69.23 70.60 71.41 71.81 72.13 72.46 72.46 72.00 72.14 71.95 71.15 70.89 70.82 70.83 70.12
42.22 38.96 34.04 36.62 42.29 44.09 41.81 40.06 38.71 32.02 31.11 37.14 35.23 34.95 46.15 49.68 51.45 51.53 52.55 53.15 54.26 55.81 56.87 58.99 65.39 64.86 66.89 67.95 69.45 70.45 71.09 71.12 71.54 72.10 71.73 71.15 70.95 70.82 70.58 70.15 69.98 70.24 69.65 69.45
41.25 37.06 31.14 33.40 38.24 39.84 36.16 38.94 40.45 39.21 38.42 33.51 29.99 34.62 47.61 50.82 51.86 52.66 52.34 52.81 53.15 54.37 55.95 58.01 64.74 65.07 67.25 68.47 69.42 70.21 70.66 70.91 71.23 70.73 70.24 70.06 70.00 69.89 69.42 69.37 69.54 69.12 68.70 68.47
42.68 38.24 32.66 29.89 34.57 34.99 32.93 37.22 39.46 39.60 34.29 33.71 36.30 37.01 39.86 43.05 49.55 50.51 51.07 52.12 53.34 53.04 55.13 57.10 61.22 65.40 67.16 68.40 68.94 69.45 70.04 70.57 70.23 69.75 69.25 69.01 68.94 68.71 68.20 68.70 68.70 68.88 68.33 68.07
40.26 34.60 36.93 38.13 39.46 38.93 38.20 37.87 38.50 37.33 38.89 33.30 37.58 37.68 40.98 41.78 43.17 49.30 50.77 50.97 51.35 51.82 54.48 56.21 58.79 65.26 66.60 66.86 68.56 69.15 69.37 69.43 69.44 68.47 68.08 67.56 67.64 68.11 68.32 68.26 68.36 68.48 67.50 67.27
40.95 34.59 37.72 34.81 38.37 38.72 36.85 38.79 39.39 39.31 39.46 39.35 39.87 38.70 44.46 46.23 48.24 48.50 49.12 49.87 50.13 51.56 53.83 55.79 57.88 64.99 65.54 65.14 67.00 68.45 68.34 68.58 68.88 67.56 66.22 66.84 67.13 67.47 67.92 68.09 67.88 68.28 67.30 67.18
36.99 35.78 35.18 31.07 37.54 36.11 32.49 37.36 38.92 40.40 41.67 40.67 37.01 42.26 45.71 45.83 46.96 48.11 49.32 50.33 50.60 51.53 54.45 55.65 58.95 62.42 65.98 65.65 67.52 66.98 67.95 68.46 67.25 66.26 65.97 66.09 66.76 66.51 67.01 67.37 66.96 66.72 67.99 67.50
36.46 35.84 35.53 30.71 34.04 25.13 36.49 42.23 40.25 39.29 41.04 43.79 44.28 45.93 47.16 47.70 49.24 50.38 51.60 50.96 51.48 53.31 55.02 58.75 61.24 62.66 67.23 66.66 66.68 67.64 68.07 67.24 66.13 65.57 65.24 65.85 65.92 66.00 66.36 66.59 66.93 67.04 68.03 67.47
41.50 35.42 33.36 30.65 30.07 33.82 36.00 37.63 35.78 35.59 36.10 41.83 41.53 45.25 47.93 47.74 48.58 50.07 52.87 52.62 52.98 56.10 58.99 60.34 62.64 64.98 67.19 65.79 67.15 67.89 67.17 66.24 65.16 64.52 65.02 65.33 65.70 65.60 65.67 65.52 65.91 67.78 67.51 67.41
41.86 37.08 33.98 32.55 28.40 26.59 34.84 40.51 42.17 39.17 30.61 41.03 40.79 41.30 43.11 45.04 43.73 47.30 54.98 56.32 56.99 58.06 59.58 60.81 62.86 62.97 67.61 66.21 67.21 67.64 66.19 65.19 64.39 64.72 64.84 65.61 65.81 65.66 65.31 66.79 67.02 67.86 67.85 67.17
36.97 33.73 31.06 32.23 30.70 33.94 39.51 43.01 42.07 30.97 35.79 42.08 43.24 43.24 43.87 44.04 48.21 51.11 53.87 54.86 56.71 58.15 59.88 62.12 63.27 62.94 67.93 67.32 67.11 66.75 65.52 64.02 65.15 65.44 65.32 65.08 65.96 66.47 66.48 67.34 67.42 67.38 66.78 66.24
35.92 34.81 34.16 34.02 31.67 29.04 44.41 41.99 35.30 40.86 44.27 44.42 46.15 45.31 46.51 46.80 49.66 50.49 52.61 53.87 56.21 58.33 60.66 62.87 62.44 63.87 67.66 67.26 67.56 66.42 64.49 65.27 65.67 65.62 65.00 65.01 66.03 65.50 65.22 66.25 66.75 66.65 66.13 65.34
37.09 39.31 37.27 37.57 37.63 45.50 47.13 45.43 47.62 46.35 44.88 44.41 44.86 46.07 46.57 46.56 47.90 50.33 51.53 53.97 57.11 58.78 59.70 62.85 63.81 65.91 65.96 66.73 67.74 65.85 64.93 65.33 65.35 65.27 64.92 64.94 65.64 66.07 66.41 66.09 66.02 64.95 66.15 64.53
42.78 45.29 40.85 40.36 42.65 44.40 45.15 47.10 47.87 47.60 45.26 45.33 44.92 45.94 47.05 45.86 48.24 49.78 51.12 53.34 56.56 58.30 59.83 60.88 63.12 65.22 64.56 66.16 67.82 66.67 65.23 65.50 65.33 64.66 64.91 65.41 65.03 65.31 65.88 65.52 65.08 64.21 64.37 64.11
43.50 44.42 41.85 41.65 43.83 44.72 45.39 45.99 46.75 46.59 46.35 44.84 46.12 46.52 46.81 48.67 50.10 49.92 51.92 55.48 57.39 59.47 61.54 61.02 63.50 65.89 64.61 66.39 67.32 66.57 64.87 65.53 65.19 64.68 64.85 65.20 64.68 65.32 65.14 59.13 58.42 64.51 63.76 60.97
46.30 43.35 41.10 39.60 44.32 43.40 44.04 46.45 47.87 46.54 44.62 45.32 46.13 47.10 48.14 48.63 49.37 51.06 54.76 56.55 55.81 57.00 61.13 61.61 63.97 64.52 65.55 66.72 66.71 65.47 64.82 65.83 65.50 64.43 64.22 64.36 64.26 64.53 64.28 65.19 63.52 43.28 44.48 43.43
MSLP
1006.55 1006.15 1005.05 1004.33 1003.69 1002.83 1002.29 1001.33 999.55 998.21 997.51 997.30 996.53 995.31 994.97 995.76 996.84 996.68 995.55 995.29 995.68 995.81 996.13 996.14 996.65 997.51 998.22 999.06 999.53 1000.01 1000.24 1000.32 1000.61 1000.77 1000.84 1000.60 1000.56 1000.96 1001.44 1001.74 1002.14 1002.66 1003.53 1004.10
1006.35 1005.26 1005.09 1004.86 1004.59 1003.68 1002.92 1001.93 1000.28 999.56 998.77 997.81 996.32 995.16 994.38 994.51 994.85 995.56 995.70 995.29 995.23 995.56 995.77 995.95 996.55 997.21 997.77 998.61 999.12 999.50 999.83 999.87 999.90 1000.10 1000.41 999.93 999.62 999.94 1000.71 1001.19 1001.95 1002.55 1003.14 1003.71
1005.82 1005.50 1005.39 1004.96 1004.20 1003.84 1003.26 1002.47 1001.69 1000.54 999.74 998.79 997.30 995.88 994.79 994.17 994.00 994.38 994.90 995.10 995.10 995.06 995.15 995.37 995.87 996.47 997.23 997.75 998.27 998.55 998.95 999.08 999.33 999.84 999.88 1000.17 1000.12 999.85 1000.48 1000.81 1001.79 1002.41 1002.84 1003.41
1005.71 1005.42 1005.06 1004.91 1004.12 1003.94 1003.00 1003.20 1002.47 1001.59 1001.01 998.65 997.87 995.13 994.16 994.07 993.59 993.49 993.61 994.05 994.07 994.03 994.74 995.33 995.69 996.08 996.51 997.03 997.23 997.39 997.94 998.18 998.67 999.34 999.36 999.55 999.60 999.71 1000.12 1000.37 1001.14 1001.93 1002.62 1003.16
1005.69 1005.13 1004.72 1004.11 1003.61 1003.51 1002.89 1003.08 1002.63 1001.98 1001.11 999.99 998.46 996.10 993.55 993.36 992.84 992.53 992.89 993.09 993.25 993.63 994.17 994.25 994.57 995.11 995.39 995.53 995.67 996.15 996.77 997.31 997.93 998.51 998.68 999.00 999.42 999.36 999.71 1000.14 1000.86 1001.51 1002.49 1002.95
1005.42 1005.71 1004.56 1003.57 1003.35 1003.43 1003.48 1003.36 1002.60 1001.77 1000.88 999.11 997.85 996.38 993.57 992.91 991.87 991.70 991.55 991.82 992.33 992.80 993.06 993.43 993.95 994.24 993.94 994.04 994.72 995.17 995.93 996.59 997.36 997.84 998.44 998.60 998.92 998.87 999.34 999.90 1000.76 1001.54 1002.51 1002.94
1005.92 1004.76 1004.65 1004.20 1003.56 1003.34 1003.79 1003.58 1002.33 1001.59 1000.23 998.07 997.88 996.02 994.15 993.36 992.60 991.95 991.98 991.60 991.89 992.27 992.69 993.06 992.91 992.91 993.05 993.12 993.93 994.35 995.27 995.92 996.76 997.41 997.99 998.45 998.68 998.95 999.43 1000.13 1000.27 1000.88 1002.17 1002.68
1006.55 1005.63 1004.86 1004.40 1004.33 1003.72 1003.42 1003.59 1003.09 1002.15 1000.70 998.86 997.70 995.22 993.59 993.80 992.79 991.96 992.19 991.57 991.42 992.46 992.81 992.46 992.66 992.61 992.33 992.31 992.98 993.81 994.42 995.42 996.12 997.01 997.70 998.13 998.57 999.06 999.48 999.76 999.72 1000.36 1001.01 1001.78
1007.15 1006.31 1005.94 1004.74 1004.42 1004.27 1003.79 1003.28 1003.03 1002.94 1002.26 1001.18 999.32 995.79 993.80 991.82 992.05 991.90 992.20 992.27 992.42 992.88 992.98 992.81 992.57 992.53 992.30 991.89 992.40 993.23 994.00 994.89 995.95 996.70 997.38 997.89 998.68 998.78 999.06 999.44 1000.20 1000.50 1000.99 1001.83
1007.49 1006.58 1006.00 1005.01 1005.75 1004.06 1003.86 1003.81 1004.08 1002.89 1002.22 1000.43 998.51 995.25 992.73 991.76 991.30 991.31 991.59 992.37 992.85 993.27 992.89 992.49 992.60 992.76 992.39 991.84 992.26 993.07 993.96 994.93 995.78 996.52 997.26 997.97 998.38 998.71 999.36 1000.08 1000.23 1000.69 1001.21 1001.81
1007.83 1007.24 1005.78 1005.07 1004.69 1003.62 1003.14 1003.35 1003.23 1003.86 1002.99 1000.47 999.00 994.74 992.28 991.06 991.41 991.33 991.55 992.64 993.23 993.24 992.72 992.21 992.64 992.96 992.09 991.82 992.39 993.25 994.01 994.86 995.70 996.60 997.34 998.03 998.44 999.05 999.82 1000.14 1000.61 1001.16 1001.74 1002.11
1008.57 1008.07 1006.06 1004.60 1003.07 1002.73 1003.67 1003.21 1004.10 1004.18 1003.14 1000.25 998.84 995.93 993.85 992.06 990.23 991.26 991.97 993.30 993.74 993.68 993.05 992.17 992.48 993.01 991.88 992.22 992.72 993.50 994.01 994.82 995.84 996.67 997.52 998.17 998.76 999.37 999.87 1000.34 1000.85 1001.39 1001.81 1002.20
1010.08 1008.60 1007.11 1004.59 1003.34 1005.19 1005.20 1004.74 1004.00 1003.87 1003.38 1001.79 1000.36 997.68 995.43 992.19 991.84 992.28 993.10 993.87 994.31 994.16 993.43 992.37 992.24 993.16 992.12 992.28 992.92 993.51 994.29 994.98 995.86 996.80 997.61 998.39 998.94 999.52 1000.05 1000.53 1001.00 1001.42 1001.79 1002.15
1011.01 1009.81 1008.80 1006.62 1004.60 1005.68 1005.68 1004.06 1003.28 1002.58 1001.95 1001.17 998.97 998.00 998.02 996.85 993.21 993.60 994.01 994.45 994.79 994.59 993.56 992.67 992.53 993.44 993.06 992.47 993.03 993.81 994.39 995.17 996.03 996.77 997.64 998.41 999.11 999.74 1000.21 1000.71 1001.17 1001.34 1001.80 1002.03
1010.99 1009.71 1008.39 1006.75 1005.35 1004.27 1003.23 1002.45 1002.09 1001.33 1000.65 999.97 998.89 998.03 998.01 998.08 997.71 994.52 994.48 995.03 994.79 994.15 993.39 993.15 993.05 993.59 993.63 993.34 993.30 993.92 994.60 995.35 996.08 996.84 997.75 998.71 999.39 999.84 1000.18 1000.76 1001.14 1001.64 1001.78 1002.43
1010.80 1009.69 1008.52 1006.84 1005.46 1004.14 1002.86 1002.10 1001.64 1001.22 1000.29 999.55 997.92 996.96 997.33 997.39 996.94 995.45 995.17 995.06 994.56 994.07 993.86 993.70 993.48 993.72 994.20 994.36 993.69 993.96 994.73 995.45 996.28 997.05 997.98 998.71 999.19 999.63 1000.08 1000.69 1001.38 1001.87 1002.04 1002.51
1011.03 1010.39 1009.06 1007.01 1005.50 1005.20 1003.68 1002.79 1002.67 1001.99 1000.39 1000.03 997.41 997.07 996.95 996.09 995.64 995.21 995.10 994.84 994.65 994.48 994.23 994.05 993.59 993.71 994.43 994.91 994.61 994.38 994.94 995.71 996.53 997.19 997.91 998.46 998.99 999.49 1000.08 1000.76 1001.58 1002.07 1002.22 1002.68
1010.79 1010.63 1010.15 1008.05 1007.36 1005.71 1004.08 1004.67 1005.08 1004.48 1003.55 1002.17 1000.56 998.13 997.62 996.57 996.11 995.62 995.19 994.93 994.62 994.40 994.40 994.03 993.87 994.08 994.33 994.89 995.12 994.87 995.19 995.89 996.46 997.00 997.59 998.26 998.75 999.37 1000.05 1000.58 1001.18 1002.13 1002.57 1003.03
1010.04 1010.84 1009.96 1008.40 1007.19 1005.59 1005.06 1006.56 1006.95 1006.58 1005.09 1004.78 1003.89 1001.58 999.58 999.19 997.75 995.66 994.73 994.92 994.78 994.55 994.62 994.33 993.92 994.01 994.14 994.95 995.33 994.74 995.20 995.79 996.21 996.78 997.39 997.98 998.51 999.27 999.93 1000.57 1001.58 1002.13 1002.96 1003.39
1008.84 1010.34 1010.45 1008.68 1007.62 1006.31 1006.66 1006.46 1006.93 1007.23 1006.00 1005.43 1005.25 1004.06 1002.66 1001.38 998.68 997.06 996.11 995.62 995.24 995.19 994.76 994.34 993.98 994.11 994.21 994.91 995.00 994.70 995.16 995.63 995.98 996.60 997.25 997.85 998.50 999.23 999.97 1000.91 1001.53 1002.40 1002.97 1003.36
1007.93 1009.07 1009.04 1008.07 1007.29 1006.24 1006.30 1006.13 1006.79 1006.74 1005.94 1005.25 1004.75 1004.13 1003.25 1001.88 999.88 998.58 998.05 997.25 996.36 995.35 994.60 994.13 993.85 994.13 993.81 994.67 994.88 994.64 995.19 995.46 995.84 996.60 997.34 998.11 998.77 999.70 1000.51 1001.19 1001.94 1002.56 1002.90 1003.32
1006.94 1007.03 1006.98 1006.95 1006.08 1005.30 1004.89 1005.52 1005.99 1005.42 1005.17 1004.93 1004.29 1003.92 1002.85 1001.98 1000.52 999.00 998.25 997.14 995.99 995.03 994.15 993.46 993.68 993.60 994.03 994.47 994.50 994.48 995.11 995.32 995.83 996.54 997.42 998.28 999.09 999.56 1000.51 1001.17 1001.90 1002.40 1002.89 1003.53
1005.62 1005.72 1006.05 1006.31 1005.03 1004.08 1003.66 1003.60 1004.09 1004.56 1004.39 1004.46 1004.14 1003.61 1002.68 1001.59 1000.53 999.38 998.52 997.10 995.68 994.85 994.15 993.42 993.58 993.48 994.14 994.51 994.10 994.40 995.01 995.28 995.88 996.53 997.56 998.65 999.37 1000.07 1000.76 1001.27 1001.78 1002.55 1003.39 1003.70
1005.03 1004.67 1004.70 1004.45 1003.48 1002.98 1002.86 1003.19 1002.98 1003.60 1003.91 1003.79 1003.58 1003.13 1002.32 1001.11 1000.24 999.00 998.04 996.87 995.55 994.83 994.05 993.95 993.69 993.67 994.27 994.26 993.72 994.30 994.92 995.26 995.91 996.74 997.80 998.69 999.80 1000.38 1000.70 1001.43 1001.81 1002.51 1003.20 1003.79
1004.91 1004.48 1003.79 1003.35 1002.85 1002.47 1002.29 1002.28 1002.28 1002.71 1003.31 1003.38 1002.69 1002.16 1001.42 1000.36 999.45 998.89 997.73 996.31 995.39 994.66 993.85 993.81 993.43 993.39 994.03 993.80 993.50 994.29 994.87 995.29 995.97 996.94 997.78 998.62 999.75 1000.45 1000.98 1002.51 1003.10 1002.96 1003.64 1003.70
1004.01 1003.50 1003.27 1003.09 1002.99 1002.41 1002.09 1002.15 1002.28 1002.92 1003.12 1002.72 1002.04 1001.17 1000.62 1000.01 999.32 998.31 996.96 996.05 995.81 995.11 994.05 993.76 993.19 993.31 993.56 993.04 993.31 994.26 994.80 995.42 996.20 996.98 997.79 998.39 999.12 1000.32 1000.84 1001.50 1003.09 1004.24 1004.48 1004.52
Wind_Speed
10 15 16 18 19 23 23 27 34 31 24 29 30 32 35 30 26 27 25 22 24 24 21 20 12 12 13 12 11 12 12 12 8 8 9 9 10 10 10 10 11 13 13 14
14 15 17 17 21 25 24 26 30 29 31 28 25 30 33 28 28 27 29 26 21 19 19 17 17 13 12 12 12 14 13 13 9 9 8 9 8 9 10 9 10 11 13 13
14 16 19 20 19 19 22 25 25 29 26 28 31 28 33 31 27 26 28 30 29 28 27 22 19 15 14 14 14 14 13 11 10 10 7 6 6 5 8 10 9 11 13 13
16 14 11 15 22 22 24 22 25 24 24 23 28 23 28 27 28 29 26 27 28 25 19 20 22 20 15 16 16 15 14 12 11 11 10 9 9 9 9 9 9 10 13 13
18 19 20 20 20 19 21 20 24 26 24 28 29 24 21 23 27 26 26 25 22 21 26 28 22 21 20 20 16 14 13 12 11 12 11 10 11 9 9 9 13 9 9 12
21 19 20 19 18 19 18 21 26 24 22 23 30 29 25 22 20 23 19 19 18 17 19 19 21 24 21 15 15 13 13 13 13 12 13 11 12 9 10 10 11 10 7 7
22 17 14 10 18 17 17 20 15 17 18 22 26 28 22 21 28 23 19 22 21 16 12 16 20 17 17 17 15 13 13 12 13 14 13 13 11 8 10 12 11 12 9 9
10 16 12 14 13 17 18 18 14 18 18 18 24 25 22 28 32 8 8 12 7 6 12 9 12 13 13 13 12 14 13 14 14 14 14 13 12 10 10 12 10 10 10 9
14 13 21 21 12 12 15 19 22 24 21 13 14 26 28 23 32 24 20 8 8 3 8 9 9 9 11 10 10 13 13 14 14 14 13 13 13 12 11 10 9 8 8 10
14 20 17 10 21 15 15 18 11 7 18 19 16 22 18 23 13 16 13 8 4 5 8 7 5 6 9 9 11 13 13 14 15 15 14 14 13 12 12 11 9 9 7 9
16 19 20 16 14 16 9 16 17 12 15 14 11 13 19 26 25 18 17 10 3 5 8 6 6 6 8 8 11 13 14 16 16 15 15 14 13 13 13 11 11 10 9 9
19 15 18 22 23 11 7 13 6 5 12 15 16 17 23 22 5 27 13 8 4 7 9 11 10 4 6 10 13 14 15 16 16 16 15 14 14 14 13 11 11 11 10 9
8 8 12 17 5 22 10 18 8 12 17 18 13 11 14 13 19 14 10 5 4 9 11 11 10 3 5 11 13 15 15 16 16 16 16 15 14 13 12 11 10 10 10 9
8 15 17 18 25 11 10 17 14 15 10 15 21 19 11 28 18 12 3 6 7 12 9 9 9 5 7 12 13 15 15 16 16 16 16 15 13 12 11 10 10 10 10 10
5 12 19 20 22 25 21 16 16 19 18 19 21 18 14 15 26 25 11 10 14 14 8 10 10 8 6 5 15 15 15 16 15 16 15 13 13 13 12 10 10 8 9 8
5 10 14 17 21 21 22 20 19 19 22 24 25 23 18 14 20 20 14 15 14 10 10 11 10 8 6 6 6 15 15 15 15 14 15 14 13 13 12 11 7 6 9 9
5 9 12 15 14 14 13 11 16 19 17 16 25 21 20 19 16 14 13 13 12 11 9 10 9 4 12 7 4 12 15 15 14 14 14 13 13 12 11 12 11 7 6 8
5 6 4 8 9 11 4 9 12 17 19 17 20 23 21 19 20 18 17 16 14 9 10 9 9 6 14 9 8 12 15 15 14 14 13 13 13 12 11 11 9 7 8 7
12 2 5 5 6 15 5 3 1 4 11 18 14 20 22 25 24 21 10 13 13 7 7 9 9 4 11 12 15 15 16 15 14 14 13 13 13 12 11 8 8 9 8 8
10 4 3 4 6 5 0 5 2 3 5 4 10 13 16 16 12 10 19 17 11 11 11 10 10 7 16 13 13 16 16 15 14 14 13 12 12 11 10 5 8 8 9 9
2 3 5 9 7 3 3 9 4 4 6 15 13 12 13 15 15 20 18 17 15 14 13 12 7 5 15 11 12 16 16 15 14 14 13 11 12 10 8 8 7 9 9 8
4 5 3 3 5 3 7 3 2 7 10 16 17 15 16 15 20 18 18 18 18 13 14 12 4 6 15 12 14 17 16 15 15 14 14 13 11 9 9 8 9 8 9 9
4 6 5 4 5 14 13 10 10 10 14 13 19 17 15 16 17 14 17 18 16 13 13 11 2 11 12 12 14 17 16 15 15 14 15 14 10 9 9 8 9 8 7 7
7 9 7 9 8 14 16 10 10 11 12 17 16 17 15 18 17 18 16 15 13 12 11 10 6 14 12 13 17 17 16 16 16 15 15 13 10 6 8 4 6 7 8 7
12 13 10 14 9 17 14 17 18 13 15 17 17 17 17 17 15 15 16 16 13 12 14 6 9 15 14 14 17 17 16 16 15 15 13 12 11 7 7 8 7 7 7 4
8 9 5 7 14 13 16 17 19 20 17 17 17 13 11 13 17 17 18 13 12 14 13 9 9 15 16 19 18 17 17 16 15 14 12 10 10 5 7 7 9 16 13 14
Wind_Direction
285 269 256 267 267 263 271 272 275 273 265 244 256 240 243 237 236 255 257 240 228 241 248 241 235 239 226 218 230 246 255 246 231 234 234 225 221 207 213 214 200 189 193 197
270 254 264 272 274 279 277 276 272 272 267 275 272 254 254 244 232 232 247 254 244 245 249 242 234 234 234 235 232 238 234 238 222 229 244 267 216 208 208 198 186 190 190 191
292 299 301 284 273 264 267 269 274 280 281 259 261 256 261 258 249 230 237 244 247 248 244 243 248 240 238 239 237 226 224 224 220 221 226 220 258 216 194 184 180 190 187 185
289 289 267 275 269 258 265 269 277 272 270 260 248 257 250 245 250 244 237 240 245 240 250 253 253 251 246 245 242 220 217 210 211 204 222 198 215 200 203 185 182 174 181 182
289 292 285 280 263 262 273 278 275 263 261 259 256 256 248 234 244 237 238 246 249 251 241 240 242 246 242 239 230 220 218 208 216 187 221 185 219 203 184 185 142 166 173 177
284 311 266 277 276 276 288 281 277 255 253 242 243 245 243 243 245 231 233 231 234 245 249 253 253 247 240 240 240 223 203 201 203 199 199 196 195 229 175 161 161 163 156 172
319 302 300 338 290 263 253 269 270 255 244 246 239 245 243 253 255 269 280 243 233 232 248 252 243 239 231 223 230 222 201 197 199 190 187 190 203 180 164 153 174 163 159 177
303 313 341 356 303 281 277 261 267 263 264 252 242 243 243 234 253 222 263 265 143 192 245 246 250 248 246 227 208 208 191 197 182 183 181 181 168 177 169 192 159 174 167 171
307 310 312 291 271 271 283 261 250 266 257 274 286 287 232 240 219 239 227 226 206 192 270 258 275 266 256 226 197 185 183 181 173 171 167 162 176 164 166 133 150 144 150 132
294 296 300 332 332 260 240 261 294 258 269 260 269 256 257 214 221 213 195 184 144 245 257 277 302 301 265 216 179 175 173 166 165 159 157 163 160 158 135 147 172 153 142 146
300 282 289 281 218 260 238 243 243 259 249 273 298 284 225 209 195 222 163 133 138 310 317 310 28 314 248 169 162 172 167 160 155 156 159 153 151 143 149 156 142 145 150 156
318 306 280 280 283 250 291 271 275 222 271 280 250 265 309 275 195 194 123 129 37 345 340 326 68 329 213 173 148 157 155 153 155 157 149 150 145 148 148 148 151 154 166 173
347 293 309 282 267 14 1 325 231 249 280 253 291 288 287 100 101 96 103 85 320 338 341 338 71 33 230 158 154 151 154 155 152 150 148 147 147 146 148 152 154 163 163 178
294 266 258 275 295 154 234 239 257 264 269 257 257 269 270 294 130 135 131 11 302 305 317 3 2 79 260 156 149 154 158 149 152 148 148 145 147 146 147 152 162 169 165 167
203 268 273 273 279 283 279 280 277 270 270 273 275 275 261 275 310 310 7 316 292 298 334 350 335 109 210 271 153 158 148 152 150 148 144 146 147 151 149 149 169 150 164 128
273 267 288 287 285 285 287 278 258 256 268 266 274 275 276 266 254 284 305 288 289 304 324 321 323 120 167 271 183 153 153 151 151 144 148 153 154 154 149 151 142 158 176 148
260 279 291 280 299 320 278 310 337 335 272 305 291 293 297 287 266 272 273 287 289 286 298 305 291 6 157 209 244 159 153 152 150 154 152 153 153 149 153 154 166 166 151 149
222 248 243 278 290 259 321 30 315 313 298 296 307 301 298 297 299 285 270 277 286 306 289 316 319 344 165 163 149 176 153 154 160 155 155 154 159 153 158 166 145 172 141 160
199 203 269 268 259 270 288 53 286 274 297 316 321 307 317 343 333 287 265 265 270 296 302 290 296 1 190 151 172 186 158 163 163 158 156 158 155 155 162 150 138 151 160 165
157 178 267 299 290 296 112 24 269 179 238 360 321 308 307 311 277 55 2 354 344 313 294 290 300 316 172 161 190 172 162 169 164 153 154 155 152 156 135 152 143 149 163 161
263 178 228 258 259 207 301 3 118 229 27 319 309 300 300 291 295 318 313 319 306 288 290 282 276 279 164 163 204 170 164 171 161 153 144 147 142 119 130 134 148 164 162 159
261 313 311 282 274 340 308 352 296 309 303 315 305 305 289 275 289 290 303 297 288 295 284 276 261 249 155 174 205 167 170 167 156 155 147 148 137 151 139 151 150 153 139 154
302 333 281 212 271 294 291 297 289 285 317 315 308 307 302 299 288 283 281 284 288 296 296 287 227 184 150 188 202 166 171 166 162 153 142 146 143 126 139 158 154 145 151 164
296 297 270 310 335 330 350 324 314 333 323 312 298 297 289 277 276 274 275 277 277 269 271 298 191 168 163 203 184 163 170 168 162 149 151 153 127 138 153 153 166 132 148 176
284 296 295 296 317 331 322 334 328 330 334 316 302 289 268 266 269 278 281 277 276 294 284 296 202 160 182 208 170 161 173 170 158 156 157 162 139 167 124 66 18 111 67 101
282 274 312 305 312 324 322 319 354 339 315 290 289 302 289 280 282 280 280 286 296 281 283 277 210 164 190 188 162 163 175 166 162 157 161 176 150 166 135 145 95 44 66 66